This demonstration page uses our WeatherBlox Daily Observations layout. Learn more.

Left ArrowRight Arrow

40.97296, -117.73568

Hourly Observations for August 4, 2022

Temp ( °F °C ) Dew Point ( °F °C ) Humidity (%) Winds ( mph kmh ) Pressure ( in mb ) Visibility ( mi km ) Precip ( " mm )
12:00 am 00:00 Mostly Cloudy with Haze 82 27.8 51 10.6 34 34 SSE 18 30 29.70 1006 2 2 0.00 0.00
12:15 am 00:15 Cloudy with Haze 82 27.8 51 10.6 34 34 S 13 20 29.72 1006 2 3 0.00 0.00
12:17 am 00:17 Cloudy with Haze 82 27.8 51 10.6 34 34 S 14 22 29.72 1006 2 3 0.00 0.00
12:34 am 00:34 Cloudy with Light Rain 82 27.8 51 10.6 34 34 WSW 8 13 29.71 1006 3 4 0.00 0.00
12:45 am 00:45 Mostly Cloudy with Haze 86 30 48 8.9 27 27 SW 8 13 29.69 1005 4 6 0.00 0.00
12:56 am 00:56 Mostly Cloudy with Haze 84 28.9 49 9.4 30 30 WNW 8 13 29.86 1011 3 5 0.00 0.00
1:56 am 01:56 Mostly Cloudy with Haze 79 26.1 52 11.1 39 39 Calm 29.86 1011 5 8 0.00 0.00
2:43 am 02:43 Hazy 78 25.6 51 10.6 39 39 SSE 12 19 29.75 1007 3 5 0.00 0.00
2:56 am 02:56 Hazy 78 25.6 51 10.6 39 39 S 8 13 29.86 1011 4 6 0.00 0.00
3:56 am 03:56 Clear 76 24.4 51 10.6 42 42 SSW 7 11 29.85 1011 7 11 0.00 0.00
4:56 am 04:56 Clear 75 23.9 50 10 41 41 S 8 13 29.85 1011 9 14 0.00 0.00
5:56 am 05:56 Sunny 70 21.1 49 9.4 47 47 WSW 6 9 29.87 1011 8 13 0.00 0.00
6:56 am 06:56 Sunny 73 22.8 50 10 44 44 SSW 6 9 29.88 1012 7 11 0.00 0.00
7:56 am 07:56 Sunny 79 26.1 51 10.6 38 38 S 14 22 29.88 1012 10 16 0.00 0.00
8:56 am 08:56 Sunny 83 28.3 51 10.6 33 33 S 9 15 29.91 1013 10 16 0.00 0.00
9:56 am 09:56 Sunny 87 30.6 51 10.6 29 29 VRB 5 7 29.89 1012 10 16 0.00 0.00
10:56 am 10:56 Sunny 90 32.2 51 10.6 26 26 VRB 3 6 29.88 1012 10 16 0.00 0.00
11:56 am 11:56 Sunny 93 33.9 49 9.4 22 22 Calm 29.85 1011 10 16 0.00 0.00
12:56 pm 12:56 Sunny 95 35 48 8.9 20 20 undefined N/A 29.83 1010 10 16 0.00 0.00
1:56 pm 13:56 Mostly Sunny 99 37.2 46 7.8 16 16 W 8 13 29.80 1009 10 16 0.00 0.00
2:56 pm 14:56 Sunny 98 36.7 46 7.8 17 17 N 3 6 29.78 1008 10 16 0.00 0.00
3:56 pm 15:56 Partly Cloudy 99 37.2 47 8.3 17 17 VRB 5 7 29.75 1007 10 16 0.00 0.00
4:56 pm 16:56 Sunny 97 36.1 46 7.8 17 17 WSW 10 17 29.74 1007 10 16 0.00 0.00
5:56 pm 17:56 Sunny 96 35.6 46 7.8 18 18 NW 9 15 29.73 1007 10 16 0.00 0.00
6:32 pm 18:32 Partly Cloudy with Nearby Thunderstorms 95 35 46 7.8 19 19 VRB 7 11 29.50 999 10 16 0.00 0.00
6:39 pm 18:39 Mostly Cloudy with Thunderstorms 89 31.7 49 9.4 25 25 SSE 23 37 29.55 1001 6 10 0.00 0.00
6:44 pm 18:44 Mostly Cloudy with Thunderstorms 87 30.6 51 10.6 29 29 SE 24 39 29.56 1001 2 3 0.00 0.00
6:51 pm 18:51 Partly Cloudy with Nearby Thunderstorms 86 30 52 11 31 31 SE 17 28 29.57 1001 2 3 0.00 0.00
6:56 pm 18:56 Partly Cloudy 88 31.1 49 9.4 26 26 ESE 13 20 29.76 1008 9 14 0.00 0.00
7:28 pm 19:28 Partly Cloudy with Thunderstorms 87 30.6 49 9.4 27 27 SW 9 15 29.58 1002 10 16 0.00 0.00
7:56 pm 19:56 Mostly Cloudy with Thunderstorms 81 27.2 55 12.8 41 41 S 13 20 29.81 1010 10 16 0.05 1.27
8:10 pm 20:10 Mostly Cloudy with Nearby Thunderstorms 79 26.1 55 12.8 44 44 SE 12 19 29.70 1006 9 14 0.01 0.25
8:40 pm 20:40 Cloudy with Light Rain 75 23.9 59 15 58 58 SE 25 41 29.78 1008 9 14 0.01 0.25
8:56 pm 20:56 Cloudy with Haze 74 23.3 59 15 60 60 SSE 25 41 29.88 1012 4 6 0.01 0.25
9:56 pm 21:56 Cloudy with Light Rain 75 23.9 58 14.4 55 55 SSE 23 37 29.90 1012 9 14 0.00 0.00
10:56 pm 22:56 Mostly Cloudy with Haze 73 22.8 59 15 62 62 SSE 14 22 29.91 1013 6 10 0.00 0.00
11:56 pm 23:56 Mostly Cloudy with Light Rain 71 21.7 60 15.6 68 68 S 8 13 29.91 1013 7 11 0.00 0.00

Powered by AerisWeather